Vertical_Velocity
2 -7 2 4 1 1 -1 -6 4 1 2 -1 -1 -2 6 2 -0 1 4 -3 -1 -0 -4 -2 -2 -4 -1 0 -0 1 -1 -0 -1 -3 -2 -2 -2 -0 2 -4 -2 0 -2 0
-4 2 3 0 -1 0 -2 -2 -5 5 7 2 -4 -10 -8 2 13 12 1 2 0 -5 0 -1 -1 -2 -3 0 -2 -0 -2 -1 -2 -3 -3 0 -2 -2 -2 1 0 0 -1 -0
-4 11 -1 1 -0 0 -2 -1 -0 -4 5 5 1 -13 -12 -5 -10 57 3 -5 -1 1 0 0 -2 -1 -3 -1 0 -0 -2 -2 -1 -2 -3 -1 0 -3 -2 -0 -3 -1 1 0
1 5 -2 -1 -2 -0 -1 3 0 -2 -5 0 0 -4 -14 -3 37 52 1 2 4 -0 -0 3 -1 -1 -2 -1 -3 -3 -2 -2 -1 -1 -1 -2 -3 -1 -2 -3 -1 -1 0 0
15 2 1 -5 6 -1 5 -1 0 4 -1 -8 -2 -5 5 -15 -18 -22 73 -6 6 0 3 3 -2 -2 -3 -2 -1 -4 -4 -2 -1 -0 -0 -1 -1 -0 -1 -1 0 -2 -0 -0
3 -4 -4 9 -3 -2 4 -0 -1 -3 2 -13 -5 -7 8 17 -6 -7 -21 5 -5 7 5 2 -7 -3 -2 -0 -1 -2 -7 -5 -2 -2 -1 -0 -1 -1 -1 -1 -0 -1 -2 0
6 6 0 -4 -7 3 -3 1 1 -5 -12 -23 6 -10 7 3 17 2 -3 -28 -3 7 5 2 -1 -3 -1 1 2 0 -0 -4 -2 -1 -0 -1 -1 -1 -1 -0 0 -1 -1 -3
2 0 6 8 6 13 1 9 5 -1 -7 0 15 -27 -10 14 6 2 -17 -9 -4 4 6 2 3 1 -1 -1 -2 -1 -1 -3 -2 -2 -0 -1 -2 -1 -1 0 0 -1 -0 1
-1 3 -1 -5 3 -0 21 -23 15 3 2 -0 12 -21 1 -3 13 14 6 -6 77 -1 -1 5 5 3 5 1 -1 1 -2 -1 -2 -2 -1 -0 -1 -0 -1 -1 0 -0 2 -1
15 -1 -7 3 3 -5 -5 -5 10 -7 -13 -12 -2 -11 9 -13 -0 2 2 -6 -2 22 16 35 -9 3 7 6 -1 -2 2 -3 -4 -5 -2 -0 -1 0 -0 -1 0 -1 -0 -0
6 -4 9 12 -13 7 2 15 1 0 -7 -9 7 -11 -2 18 -6 0 5 6 -8 -29 44 17 -24 -6 5 4 3 -2 1 -2 1 -1 -2 -2 0 -0 -1 -1 -1 -1 -0 0
8 -11 2 -10 7 -1 4 -3 8 8 3 -16 5 -40 -9 14 10 -8 -2 1 4 12 -1 -38 -8 1 -1 8 2 0 -4 1 -2 -0 -3 -3 -4 -2 0 -0 -1 -1 1 1
-4 1 -1 4 9 -7 -10 12 15 -0 7 -14 16 -17 1 16 0 15 21 -6 9 8 -15 -27 -16 -8 -1 6 1 1 -4 -2 -2 -2 -0 -3 -1 -3 0 1 -1 -1 -1 1
2 7 1 -3 46 4 -1 -6 -3 -20 -1 -5 -0 -0 -1 49 1 -8 -0 -1 -2 17 -6 -12 3 -16 88 16 1 -4 -4 -4 -5 1 -2 -1 1 1 -1 0 -1 -0 -0 0
-4 -9 -6 4 17 -14 -8 -5 -7 -2 5 -18 6 -10 -10 4 -1 8 -3 0 8 13 -1 11 28 -60 198 9 4 -8 -7 -5 -5 -2 -2 -2 0 2 -1 -1 -1 1 -0 1
-0 -5 -7 -6 7 -12 -9 2 6 -2 -13 12 4 -25 -10 8 -10 10 5 -1 -5 2 0 1 -12 11 -6 -6 1 -9 -11 -6 -4 -3 -2 -1 -3 -1 -0 1 1 1 1 0
2 -6 -2 -21 7 5 -1 -4 -7 -6 2 -2 -32 6 20 -2 -14 1 4 -2 -6 -11 -0 -2 -4 -19 16 16 11 12 3 -8 -5 -3 -5 -1 -3 -3 0 -2 -2 0 1 -2
-0 -1 6 -7 12 -7 -36 9 -6 -3 2 -10 -3 -1 5 6 -4 22 9 4 -3 -7 -5 -13 -15 -4 -8 125 -34 -1 7 2 -4 -6 -3 -4 -1 -2 -2 -1 0 -1 0 1
-3 -1 -5 -14 8 2 -0 0 10 7 -0 17 -12 -14 -26 -14 -6 13 4 3 11 0 5 -11 -11 -13 11 7 6 -4 -4 6 -7 -5 -2 -1 -2 -1 -1 0 1 -0 -0 -0
3 -4 -2 11 -9 -11 -0 6 7 2 -32 2 -3 2 -18 15 -31 -13 20 6 19 13 13 -2 -7 -9 -9 13 15 0 17 -2 -5 -5 1 3 -1 -0 0 0 -1 -1 -2 -1
1 6 -3 3 -4 -11 18 19 -15 -2 -35 -15 -22 -13 -1 -15 -24 11 29 21 -8 39 -10 2 6 1 -5 -6 -4 -7 -8 -6 7 3 -3 -2 1 1 0 -0 -1 -1 -0 -2
0 3 0 -5 0 -10 -9 4 -6 -13 -21 -15 -10 4 -17 -13 -1 1 38 -31 14 10 -1 -4 8 3 2 -5 -10 -6 -12 9 1 -2 -2 -2 -1 1 -1 1 1 1 -1 -0
1 -5 -7 -7 -3 -3 -3 -8 -1 -3 7 -10 -24 2 -16 -12 -7 22 30 -38 -5 10 -1 -6 10 -7 -9 -2 -7 -8 8 -4 -1 -3 3 2 1 -2 -1 -2 1 -2 -1 -0
1 -2 -1 -1 1 -2 -2 -4 -3 -4 -8 -9 -19 10 -7 -2 -9 -12 -36 -21 1 2 -0 0 -2 0 -1 -5 -0 9 3 -5 -4 -2 2 -0 -2 -1 0 -1 -3 -2 0 0
3 3 3 -0 -0 2 2 5 3 6 5 6 4 10 -6 3 -17 -6 -8 4 -7 -1 -7 -3 -3 3 -2 -4 -4 -3 2 6 -5 0 -2 -1 -5 -1 -1 -2 -1 -0 -0 2
0 1 4 0 0 5 12 14 9 8 10 -3 12 2 1 -3 -19 1 1 -1 -3 -6 -5 -2 -7 -2 3 -1 -3 2 -1 0 1 5 0 3 -5 -5 -2 -2 2 -2 -1 2
Height
5838 5841 5846 5850 5853 5856 5858 5860 5867 5870 5875 5875 5873 5875 5877 5877 5883 5885 5885 5887 5889 5892 5893 5896 5900 5903 5906 5910 5913 5917 5921 5924 5926 5929 5931 5934 5936 5937 5938 5939 5940 5940 5941 5942
5831 5835 5840 5843 5846 5850 5853 5857 5860 5869 5874 5876 5871 5869 5874 5879 5880 5884 5881 5884 5888 5891 5894 5896 5900 5903 5905 5908 5912 5916 5920 5924 5926 5929 5932 5935 5937 5938 5939 5940 5941 5943 5943 5946
5824 5831 5834 5837 5841 5844 5848 5853 5857 5861 5870 5872 5873 5861 5863 5869 5873 5867 5881 5881 5886 5890 5893 5895 5898 5901 5904 5907 5910 5915 5919 5923 5926 5929 5932 5935 5938 5940 5941 5942 5942 5944 5945 5948
5817 5823 5825 5829 5834 5838 5842 5847 5851 5853 5858 5865 5865 5864 5857 5861 5861 5832 5859 5880 5885 5888 5890 5893 5896 5899 5903 5906 5908 5913 5917 5922 5926 5930 5933 5936 5938 5941 5943 5943 5945 5946 5949 5951
5810 5813 5816 5821 5827 5831 5835 5840 5844 5848 5850 5854 5857 5858 5863 5855 5863 5855 5861 5878 5882 5885 5889 5892 5895 5898 5900 5904 5907 5911 5915 5920 5925 5929 5932 5936 5939 5942 5944 5946 5948 5950 5952 5953
5797 5801 5807 5813 5817 5822 5827 5832 5836 5839 5843 5842 5850 5853 5858 5863 5860 5866 5863 5877 5877 5883 5887 5892 5895 5896 5898 5902 5906 5910 5914 5918 5924 5928 5931 5935 5939 5942 5944 5947 5949 5951 5953 5955
5787 5793 5796 5801 5808 5813 5819 5823 5828 5831 5832 5837 5849 5847 5853 5860 5860 5862 5864 5859 5873 5877 5884 5889 5894 5897 5898 5901 5905 5909 5913 5917 5921 5926 5930 5933 5937 5941 5944 5946 5949 5952 5954 5955
5776 5784 5786 5792 5800 5804 5808 5813 5818 5824 5829 5836 5841 5839 5847 5858 5860 5855 5859 5858 5859 5868 5878 5884 5890 5894 5897 5899 5902 5906 5910 5914 5919 5924 5928 5931 5935 5939 5943 5946 5949 5951 5954 5956
5765 5771 5776 5780 5785 5793 5802 5801 5817 5818 5825 5827 5835 5838 5842 5848 5855 5859 5849 5852 5831 5858 5868 5876 5883 5888 5893 5897 5900 5903 5906 5910 5915 5920 5924 5929 5933 5937 5941 5944 5947 5950 5953 5954
5759 5761 5765 5769 5774 5779 5785 5799 5802 5803 5809 5813 5824 5833 5841 5843 5849 5850 5850 5850 5853 5847 5853 5863 5874 5880 5887 5893 5896 5900 5903 5906 5910 5915 5920 5925 5929 5934 5938 5941 5945 5949 5951 5954
5748 5750 5761 5763 5762 5769 5778 5785 5786 5792 5800 5806 5814 5822 5837 5846 5844 5846 5844 5847 5847 5847 5841 5854 5860 5872 5881 5885 5892 5896 5900 5903 5907 5912 5917 5922 5927 5931 5935 5939 5943 5946 5950 5952
5735 5739 5746 5752 5758 5755 5764 5770 5780 5784 5790 5793 5803 5813 5830 5838 5838 5838 5839 5842 5839 5842 5847 5843 5855 5863 5875 5880 5886 5892 5894 5899 5902 5907 5911 5917 5922 5926 5932 5937 5941 5943 5947 5950
5722 5731 5734 5745 5748 5749 5751 5761 5767 5772 5781 5784 5794 5804 5824 5830 5832 5832 5832 5834 5841 5836 5840 5842 5840 5855 5867 5876 5881 5886 5891 5894 5898 5902 5906 5911 5918 5923 5929 5934 5937 5941 5944 5947
5706 5715 5720 5728 5741 5731 5738 5744 5752 5756 5763 5772 5779 5795 5813 5816 5813 5811 5817 5823 5834 5839 5835 5843 5847 5846 5847 5869 5875 5880 5885 5889 5892 5897 5900 5905 5912 5919 5924 5929 5934 5937 5940 5944
5691 5696 5703 5710 5715 5713 5722 5728 5736 5742 5753 5759 5772 5783 5794 5790 5795 5801 5803 5809 5818 5828 5835 5842 5848 5831 5811 5861 5869 5872 5878 5883 5888 5892 5895 5901 5905 5911 5918 5924 5928 5932 5936 5939
5676 5680 5687 5690 5697 5703 5710 5717 5723 5729 5737 5746 5752 5759 5776 5772 5783 5791 5796 5800 5804 5812 5824 5831 5834 5845 5848 5851 5863 5866 5870 5877 5882 5887 5891 5894 5898 5904 5911 5917 5922 5927 5931 5935
5667 5669 5672 5678 5685 5689 5691 5703 5710 5717 5725 5731 5736 5754 5760 5758 5764 5780 5786 5789 5793 5800 5809 5819 5826 5832 5832 5838 5849 5859 5866 5870 5875 5882 5884 5888 5893 5898 5905 5910 5915 5921 5926 5929
5659 5662 5662 5667 5668 5667 5685 5694 5697 5702 5708 5717 5722 5735 5752 5751 5750 5767 5777 5781 5783 5790 5799 5808 5815 5822 5814 5825 5819 5846 5856 5863 5870 5876 5880 5884 5888 5894 5899 5904 5910 5915 5919 5923
5652 5653 5654 5655 5657 5662 5667 5676 5685 5680 5685 5697 5697 5703 5728 5738 5741 5759 5768 5772 5776 5783 5791 5798 5809 5816 5823 5823 5831 5842 5849 5858 5863 5872 5877 5881 5884 5888 5893 5899 5903 5907 5911 5916
5648 5647 5647 5648 5647 5649 5663 5666 5659 5662 5667 5680 5685 5691 5709 5723 5719 5750 5761 5763 5767 5773 5781 5788 5796 5804 5812 5823 5830 5836 5846 5852 5859 5867 5875 5877 5879 5883 5887 5891 5895 5899 5903 5908
5642 5641 5640 5639 5639 5641 5649 5653 5644 5647 5662 5663 5667 5678 5694 5708 5726 5750 5748 5738 5750 5759 5764 5776 5789 5798 5804 5811 5820 5826 5835 5844 5857 5862 5866 5871 5876 5878 5881 5884 5887 5891 5895 5899
5638 5637 5635 5634 5633 5631 5631 5634 5635 5639 5644 5653 5659 5668 5677 5696 5711 5724 5728 5715 5737 5745 5754 5765 5779 5787 5794 5802 5810 5819 5828 5841 5848 5853 5858 5865 5870 5873 5875 5878 5881 5884 5887 5892
5635 5633 5630 5628 5627 5626 5626 5626 5626 5624 5625 5631 5635 5651 5660 5675 5694 5702 5689 5705 5725 5739 5750 5763 5771 5777 5785 5794 5801 5810 5821 5831 5838 5845 5852 5857 5862 5866 5869 5872 5874 5877 5881 5884
5631 5628 5626 5623 5621 5618 5616 5614 5612 5609 5608 5610 5612 5631 5643 5660 5671 5674 5695 5705 5715 5727 5741 5754 5763 5770 5778 5785 5792 5803 5812 5819 5826 5834 5843 5848 5854 5859 5862 5865 5867 5870 5873 5877
5629 5626 5623 5619 5615 5611 5608 5607 5604 5601 5598 5595 5596 5616 5634 5645 5654 5666 5686 5698 5707 5718 5732 5743 5754 5762 5769 5775 5783 5790 5800 5810 5815 5825 5832 5839 5845 5850 5854 5857 5860 5863 5866 5869
5628 5623 5620 5616 5612 5608 5604 5601 5598 5596 5595 5599 5603 5615 5629 5637 5645 5660 5672 5682 5694 5707 5720 5730 5741 5752 5760 5766 5774 5782 5789 5797 5805 5815 5823 5830 5835 5841 5844 5847 5852 5857 5859 5861